| time (UTC) | temp C | wind direction | speed KPH | gust KPH | rain 1hr cm | rain 24hr cm | rain mn cm | humidity % | barometer mb |
| 20260505031549 | 17 | 360 | 0.0 | 0.0 | 0.00 | 0.00 | 0.00 | 100 | 1002.7 |
| 20260505030046 | 17 | 360 | 0.0 | 20.9 | 0.00 | 0.00 | 0.00 | 100 | 1002.3 |
| 20260505024603 | 17 | 360 | 1.6 | 17.7 | 0.00 | 0.00 | 0.00 | 100 | 1002.6 |
| 20260505023038 | 17 | 257 | 0.0 | 14.5 | 0.00 | 0.00 | 0.00 | 100 | 1002.3 |
| 20260505021545 | 17 | 360 | 0.0 | 14.5 | 0.00 | 0.00 | 0.00 | 100 | 1001.7 |
| 20260505020027 | 18 | 360 | 8.0 | 19.3 | 0.00 | 0.00 | 0.00 | 100 | 1001.3 |
| 20260505014526 | 18 | 360 | 6.4 | 19.3 | 0.00 | 0.00 | 0.00 | 100 | 1001.2 |
| 20260505013018 | 18 | 227 | 0.0 | 12.9 | 0.00 | 0.00 | 0.00 | 100 | 1000.7 |
| 20260505011516 | 18 | 247 | 1.6 | 19.3 | 0.00 | 0.00 | 0.00 | 100 | 1000.8 |
| 20260505010009 | 18 | 360 | 14.5 | 30.6 | 0.00 | 0.00 | 0.00 | 100 | 1000.5 |
| 20260505004513 | 19 | 213 | 4.8 | 25.7 | 0.00 | 0.00 | 0.00 | 100 | 1000.4 |
| 20260505003001 | 20 | 209 | 4.8 | 17.7 | 0.00 | 0.00 | 0.00 | 100 | 1000.6 |
| 20260505001557 | 20 | 202 | 0.0 | 0.0 | 0.00 | 0.00 | 0.00 | 100 | 999.1 |
| 20260505000056 | 21 | 222 | 1.6 | 16.1 | 0.00 | 0.00 | 0.00 | 26 | 999.6 |
| 20260504234548 | 22 | 244 | 9.7 | 19.3 | 0.00 | 0.00 | 0.00 | 43 | 999.7 |
| 20260504233056 | 22 | 360 | 3.2 | 14.5 | 0.00 | 0.00 | 0.00 | 44 | 999.4 |
| 20260504231539 | 22 | 250 | 19.3 | 43.5 | 0.00 | 0.00 | 0.00 | 44 | 999.5 |
| 20260504230035 | 24 | 360 | 14.5 | 25.7 | 0.00 | 0.00 | 0.00 | 42 | 999.1 |
| 20260504224529 | 23 | 360 | 1.6 | 16.1 | 0.00 | 0.00 | 0.00 | 41 | 999.0 |
| 20260504223034 | 23 | 162 | 0.0 | 8.0 | 0.00 | 0.00 | 0.00 | 40 | 999.0 |
| 20260504221523 | 23 | 225 | 0.0 | 17.7 | 0.00 | 0.00 | 0.00 | 41 | 999.5 |
| 20260504220021 | 25 | 250 | 14.5 | 33.8 | 0.00 | 0.00 | 0.00 | 46 | 999.8 |
| 20260504214513 | 26 | 360 | 6.4 | 30.6 | 0.00 | 0.00 | 0.00 | 39 | 999.4 |
| 20260504213008 | 27 | 184 | 6.4 | 27.4 | 0.00 | 0.00 | 0.00 | 36 | 999.3 |
| 20260504211504 | 27 | 360 | 9.7 | 25.7 | 0.00 | 0.00 | 0.00 | 35 | 999.6 |
| 20260504210104 | 26 | 255 | 12.9 | 29.0 | 0.00 | 0.00 | 0.00 | 36 | 1000.0 |
| 20260504204606 | 27 | 360 | 16.1 | 35.4 | 0.00 | 0.00 | 0.00 | 35 | 999.9 |
| 20260504203051 | 27 | 257 | 14.5 | 27.4 | 0.00 | 0.00 | 0.00 | 35 | 1000.1 |
| 20260504201548 | 27 | 237 | 17.7 | 41.8 | 0.00 | 0.00 | 0.00 | 35 | 1000.1 |
| 20260504200046 | 28 | 167 | 16.1 | 33.8 | 0.00 | 0.00 | 0.00 | 32 | 1000.2 |
| 20260504194639 | 27 | 360 | 11.3 | 27.4 | 0.00 | 0.00 | 0.00 | 35 | 1000.4 |
| 20260504193033 | 27 | 360 | 9.7 | 30.6 | 0.00 | 0.00 | 0.00 | 37 | 1000.7 |
| 20260504191530 | 26 | 246 | 20.9 | 37.0 | 0.00 | 0.00 | 0.00 | 37 | 1000.9 |
| 20260504190030 | 27 | 360 | 14.5 | 33.8 | 0.00 | 0.00 | 0.00 | 35 | 1000.9 |
| 20260504184525 | 26 | 360 | 19.3 | 37.0 | 0.00 | 0.00 | 0.00 | 35 | 1001.1 |
| 20260504183016 | 26 | 360 | 14.5 | 33.8 | 0.00 | 0.00 | 0.00 | 35 | 1001.2 |
| 20260504181511 | 26 | 360 | 12.9 | 35.4 | 0.00 | 0.00 | 0.00 | 32 | 1001.4 |
| 20260504180008 | 26 | 360 | 16.1 | 33.8 | 0.00 | 0.00 | 0.00 | 31 | 1001.6 |
| 20260504174502 | 25 | 242 | 16.1 | 29.0 | 0.00 | 0.00 | 0.00 | 32 | 1001.8 |
| 20260504173101 | 25 | 252 | 12.9 | 30.6 | 0.00 | 0.00 | 0.00 | 35 | 1001.9 |
| 20260504171557 | 25 | 241 | 8.0 | 27.4 | 0.00 | 0.00 | 0.00 | 37 | 1002.1 |
| 20260504081535 | 10 | 260 | 0.0 | 0.0 | 0.00 | 0.00 | 0.00 | 100 | 1006.0 |
| 20260504050021 | 15 | 248 | 0.0 | 6.4 | 0.00 | 0.00 | 0.00 | 100 | 1007.8 |
| 20260504044520 | 15 | 245 | 0.0 | 6.4 | 0.00 | 0.00 | 0.00 | 100 | 1007.7 |
| 20260504043017 | 15 | 360 | 0.0 | 8.0 | 0.00 | 0.00 | 0.00 | 15 | 1007.7 |
| 20260504041506 | 16 | 226 | 3.2 | 11.3 | 0.00 | 0.00 | 0.00 | 30 | 1007.6 |
| 20260504040003 | 16 | 227 | 3.2 | 11.3 | 0.00 | 0.00 | 0.00 | 35 | 1007.5 |
| 20260504034558 | 16 | 207 | 3.2 | 11.3 | 0.00 | 0.00 | 0.00 | 37 | 1007.5 |
| 20260504033059 | 16 | 236 | 1.6 | 11.3 | 0.00 | 0.00 | 0.00 | 38 | 1007.7 |